RH
60 60 60 60 62 63 63 63 63 64 63 64 65 66 68 71 72 72 72 74 74 75 74 74 74 73 72 72 73 76 78 82 84 86 88 88 88 87 86 84 81 78 76 70 63 55 46 38 30 24 19 17 17 18 20 22 24 26 28 30 31 32 33 35 36 38 39 40 42 42 40 42 49 56 58 54 45 38 36 39 41 43 44 44 44 44
54 52 51 48 48 47 46 44 45 46 45 46 48 50 53 56 56 56 56 57 59 61 64 66 67 68 69 70 72 75 78 80 83 84 86 87 88 86 84 81 76 71 64 55 46 38 30 24 20 18 18 20 22 24 26 28 30 32 33 34 36 37 38 40 42 42 44 44 44 44 42 40 40 41 43 42 42 44 46 47 47 46 44 42 42 42
42 40 38 34 31 30 27 24 23 24 26 26 27 30 32 36 39 42 44 46 49 52 56 58 60 62 65 69 72 74 76 79 81 82 83 84 82 80 76 70 62 54 46 38 31 25 21 20 20 22 24 26 28 30 32 34 36 37 38 40 40 42 43 45 46 48 48 48 47 46 45 44 45 46 48 50 50 50 48 46 43 42 39 38 38 40
25 26 26 24 22 20 17 13 12 12 12 13 14 16 18 22 26 31 36 40 42 45 47 50 53 56 60 65 69 71 73 74 74 74 73 71 68 64 59 52 45 38 31 26 23 22 22 24 26 29 32 33 35 36 38 39 40 42 43 44 46 48 49 50 51 52 51 50 49 49 49 50 52 53 53 52 50 47 44 42 40 38 38 37 36 35
11 14 15 17 18 17 15 14 13 13 13 12 12 13 14 18 22 26 30 33 36 39 41 44 48 52 56 59 62 63 63 62 60 58 56 54 51 47 42 37 32 28 25 24 24 26 28 31 34 36 38 39 40 40 42 43 44 46 48 50 52 53 54 55 55 55 54 53 53 53 54 55 56 54 52 48 45 43 40 40 39 38 38 37 36 36
5 8 8 11 13 14 14 14 15 16 16 16 16 16 17 19 22 24 27 30 32 35 37 40 42 46 48 51 52 53 53 51 48 46 43 42 40 38 34 30 28 26 26 28 30 32 36 39 40 42 43 43 44 45 46 48 49 51 53 54 56 57 58 58 58 57 56 56 56 57 58 57 55 52 48 45 42 41 40 40 39 38 38 36 36 38
3 5 6 8 9 10 12 14 15 17 19 20 20 20 21 22 23 24 26 28 31 33 35 37 39 42 44 45 47 49 50 48 46 42 42 41 39 36 32 30 30 30 32 35 38 40 43 45 47 47 48 48 48 50 51 52 54 56 57 58 60 61 61 60 60 58 58 58 58 58 58 56 52 48 44 42 42 41 41 40 40 38 36 36 38 42
2 3 5 7 8 9 11 14 16 18 20 22 23 24 24 24 24 26 26 28 30 33 36 37 39 42 44 46 48 51 53 52 50 48 45 43 40 37 35 35 36 38 41 44 46 48 50 51 52 52 52 53 54 54 55 56 58 60 61 63 64 64 64 62 61 60 58 58 58 58 56 52 48 45 43 43 42 42 42 40 39 38 35 34 36 37
2 2 4 6 8 8 10 12 15 18 20 21 23 24 24 24 26 27 30 32 34 35 38 38 40 42 46 50 54 55 54 53 52 49 46 42 40 39 40 42 45 48 52 54 56 56 57 57 57 57 58 58 58 59 60 60 61 63 65 67 68 67 66 63 61 60 58 58 58 56 53 49 46 45 44 44 44 43 42 40 38 36 34 32 30 28
2 2 3 4 6 7 8 8 10 13 16 18 20 22 26 28 30 32 35 40 42 44 44 42 43 44 46 51 56 58 55 50 47 45 43 41 42 44 49 54 57 60 62 63 64 64 63 62 63 63 64 64 64 64 64 64 65 67 69 70 70 69 66 63 61 60 58 58 56 53 50 48 47 46 46 46 44 43 42 40 37 34 31 28 26 24
2 2 2 3 4 5 6 8 8 10 12 15 18 22 28 35 40 42 42 48 53 55 52 49 49 50 50 49 51 53 52 46 42 42 42 45 50 55 60 64 67 69 69 70 70 70 69 69 70 70 71 71 71 70 70 69 70 70 71 72 70 68 65 62 60 58 58 56 54 52 50 49 48 48 48 46 45 43 40 38 35 31 28 24 23 22
2 2 3 4 4 6 7 8 10 12 15 17 18 20 24 36 46 54 58 58 58 58 54 48 49 51 53 48 45 43 44 44 44 45 48 53 60 65 70 72 74 74 74 74 74 74 73 73 74 74 76 76 76 75 74 74 74 74 74 73 71 68 65 62 60 58 56 54 53 52 51 50 50 50 49 47 44 42 40 36 32 28 24 22 24 27
4 4 5 6 8 8 10 11 13 15 17 19 19 20 22 31 42 52 58 56 55 54 50 45 43 44 46 43 42 41 44 48 51 55 58 62 66 71 74 77 78 78 77 77 78 78 77 76 76 76 76 76 77 77 78 78 78 77 76 74 72 68 66 63 60 58 56 54 54 53 53 52 52 51 49 47 44 41 38 33 28 24 22 26 33 43
7 8 9 10 12 13 15 16 18 19 20 21 22 24 24 29 35 40 41 40 40 42 42 40 38 38 38 40 43 48 53 58 62 63 64 66 69 72 74 78 80 81 80 81 82 82 82 81 80 78 77 76 76 76 78 79 79 78 76 74 72 70 67 64 62 60 58 56 56 55 55 54 54 52 49 46 43 40 35 30 26 25 28 39 52 64
10 12 14 15 17 18 20 21 22 23 23 24 24 26 26 28 30 32 32 31 33 36 38 37 38 40 44 49 54 58 65 70 70 69 67 67 69 72 76 80 82 82 82 83 83 84 83 82 81 80 78 76 76 76 78 79 79 78 76 76 74 72 70 68 65 63 61 60 58 58 58 56 54 52 48 45 42 37 32 27 27 32 45 60 70 76
14 16 17 18 19 20 21 22 23 23 23 24 24 24 25 26 27 29 32 33 35 37 40 40 43 48 56 62 66 69 72 74 76 74 71 70 73 76 80 82 83 82 82 82 83 84 84 83 82 80 78 76 76 76 80 81 80 80 78 78 76 74 73 71 69 67 64 62 61 60 58 56 54 51 47 43 40 34 28 26 34 48 66 73 77 78
16 18 18 18 19 19 20 20 20 20 20 21 21 22 22 24 26 28 32 36 38 39 40 46 54 60 64 68 72 74 74 78 78 76 74 74 77 81 83 84 84 83 82 82 84 84 84 84 83 81 79 77 76 78 81 82 82 82 80 79 77 75 74 73 72 70 67 64 62 60 58 56 52 49 45 42 37 32 26 30 46 66 78 78 78 77
17 18 17 17 17 17 17 17 17 17 18 19 20 21 22 24 27 30 33 36 38 40 44 52 60 64 65 65 65 67 75 80 80 78 77 77 79 82 83 84 84 84 83 84 84 84 84 83 82 80 78 77 78 80 83 83 82 81 79 76 74 73 72 72 72 71 68 65 62 60 57 54 51 47 43 39 34 29 26 36 54 71 78 79 78 76
16 16 15 15 15 15 16 17 18 18 18 20 21 22 24 27 31 35 38 40 42 46 50 55 58 62 66 72 72 72 77 81 82 82 82 82 83 84 83 84 85 85 85 85 84 84 84 82 80 78 76 76 78 81 83 82 81 79 76 74 73 72 72 73 74 72 69 65 62 59 56 52 49 45 42 37 32 29 30 42 55 66 73 74 74 72
14 14 14 14 15 16 18 20 21 22 23 24 26 28 29 31 34 37 39 42 46 50 54 56 58 62 68 73 73 73 77 81 82 83 82 83 83 84 84 84 85 85 84 84 84 84 83 82 79 77 74 74 75 77 80 79 78 77 76 74 74 73 74 75 74 73 69 65 62 58 55 51 47 44 40 34 31 31 37 48 59 66 70 70 70 69
13 14 15 16 18 19 21 23 25 27 29 31 33 34 35 36 37 39 41 43 45 47 50 50 51 53 58 61 62 65 69 76 78 77 73 71 73 77 82 84 84 84 82 82 82 81 80 77 76 74 72 71 73 76 77 76 76 74 73 72 72 73 74 76 74 73 69 65 62 58 54 50 46 42 38 33 31 34 42 54 62 68 70 70 69 68
14 15 17 20 22 24 26 28 30 32 34 36 37 38 39 40 41 42 42 44 45 47 49 50 51 52 54 55 56 57 60 65 67 67 67 65 66 70 76 79 79 77 76 74 74 74 72 72 72 71 70 72 74 77 78 76 74 72 72 72 73 74 76 76 74 72 69 65 61 57 53 48 44 40 36 32 33 38 48 57 63 67 68 68 68 68
17 19 22 24 26 29 31 32 34 36 37 38 40 40 42 42 43 44 45 47 49 50 52 54 56 58 60 61 62 63 64 67 69 71 74 74 75 76 79 78 76 73 69 68 70 72 73 72 72 72 73 76 79 80 79 77 76 74 74 74 75 76 76 75 74 71 68 64 60 56 51 46 42 38 34 32 36 42 52 59 64 66 68 68 68 67
22 24 26 28 30 32 34 35 36 37 38 40 40 42 43 44 45 47 49 51 54 56 58 60 62 64 66 68 68 70 74 78 78 78 80 80 80 80 81 78 76 73 72 74 76 78 78 76 76 76 79 81 82 82 80 78 77 76 76 76 76 76 74 74 72 69 66 62 58 53 48 44 40 37 34 34 39 46 55 60 64 66 67 67 67 67
26 28 30 32 33 34 35 36 37 38 39 40 42 43 44 46 49 51 54 57 60 64 66 67 68 70 72 72 73 74 78 80 80 80 81 80 81 81 79 77 76 77 79 80 80 79 78 79 80 83 84 84 84 83 81 79 78 77 77 76 76 74 73 72 69 67 64 60 55 50 45 42 38 36 34 37 43 50 58 62 64 66 66 67 68 68
30 31 32 33 34 35 36 38 39 40 42 43 45 47 49 51 54 57 60 64 67 68 69 69 70 71 73 74 76 78 80 82 82 82 82 82 82 80 79 79 80 82 82 82 82 82 82 83 84 84 84 84 84 82 80 78 77 76 76 76 74 73 71 70 67 64 60 56 51 46 42 39 37 36 37 42 48 54 60 63 65 65 66 66 67 68
32 32 34 34 36 38 39 40 42 44 46 48 50 52 55 57 60 62 65 67 68 68 68 68 69 70 70 74 78 80 80 82 82 81 81 81 81 81 81 82 82 82 82 82 83 83 84 84 84 84 85 84 83 80 78 76 75 75 75 74 73 71 69 67 64 61 57 52 47 43 40 38 37 38 41 46 52 58 62 64 64 65 65 66 67 67
32 34 35 37 39 40 42 44 46 48 50 53 56 58 60 62 63 64 66 67 67 67 68 68 68 69 70 74 78 79 78 78 78 78 78 79 80 82 82 82 82 82 81 82 82 82 84 84 84 84 83 81 78 76 74 74 73 73 73 72 70 68 66 64 60 57 52 47 43 40 38 38 39 42 46 52 57 61 63 64 64 64 65 65 65 65
34 35 37 39 42 43 45 47 49 52 54 57 60 62 64 64 64 65 66 66 66 66 67 68 68 68 68 70 72 72 73 73 74 74 74 75 76 78 79 80 80 79 77 76 76 76 78 79 80 79 78 76 74 73 73 72 72 71 70 69 67 66 63 60 56 52 47 43 40 39 38 40 43 47 52 57 60 63 64 64 64 64 64 64 63 62
35 38 40 42 43 45 47 50 52 55 58 60 62 64 65 65 65 65 65 65 65 65 64 64 64 62 61 60 60 59 59 60 61 62 62 64 67 69 71 73 74 74 74 71 70 69 70 72 74 74 74 74 74 74 74 72 71 69 68 66 64 61 58 54 50 46 42 40 40 40 40 44 48 53 58 61 63 64 65 65 65 64 63 61 59 57
37 40 42 44 46 47 50 52 56 58 60 62 64 64 65 66 65 64 64 63 63 62 60 59 58 56 53 51 48 46 46 47 48 48 49 50 53 55 58 61 64 67 68 68 68 66 66 67 69 71 73 74 74 73 72 70 68 66 64 62 59 56 52 48 44 42 40 40 41 43 45 50 54 59 62 64 66 66 67 66 65 63 61 58 54 51
39 42 44 45 47 50 52 55 58 60 62 64 65 66 66 65 64 63 62 60 59 58 55 53 51 50 48 46 44 43 42 42 42 42 42 42 42 43 44 47 50 54 58 61 63 64 64 64 65 66 68 69 69 68 66 64 62 60 58 55 52 48 45 42 41 40 40 42 45 48 52 57 61 64 66 68 68 68 68 66 63 60 57 52 48 44
42 44 46 48 49 52 55 58 60 62 64 66 67 67 66 65 64 62 60 58 55 53 51 50 48 47 46 46 45 44 43 43 43 42 42 40 40 40 39 40 42 44 46 50 54 57 59 60 60 61 62 62 62 61 60 58 56 53 51 48 45 42 42 40 41 42 44 47 51 55 59 63 66 68 69 70 69 68 66 62 59 55 51 46 42 40
44 47 49 50 52 55 58 62 64 65 66 68 68 67 66 64 62 60 58 55 53 51 50 49 48 48 47 46 46 45 44 44 44 44 43 42 42 42 41 41 42 42 42 44 46 48 51 53 54 55 55 56 56 55 53 51 50 48 46 44 43 42 42 43 44 46 50 54 58 61 64 66 68 70 70 68 66 64 60 57 53 49 45 42 38 36
47 50 52 53 54 57 61 64 66 66 67 68 68 66 65 63 61 60 57 55 54 52 51 51 50 49 48 46 46 45 44 45 45 45 45 44 44 45 45 45 46 45 45 44 45 45 47 48 49 50 50 50 50 49 48 48 47 46 46 47 48 49 49 50 51 53 57 60 63 65 67 68 68 68 66 64 60 57 52 49 45 42 40 38 37 38
49 52 54 55 57 58 61 63 64 64 64 64 64 63 62 61 60 60 58 56 55 54 52 52 50 49 48 47 46 46 46 46 46 46 47 47 47 48 49 50 50 50 50 48 48 47 47 47 47 47 47 47 47 46 46 47 48 50 53 56 58 60 58 58 60 62 64 66 67 68 68 68 66 64 61 57 52 48 45 42 40 40 39 39 40 44
52 54 56 57 58 58 60 60 60 60 60 60 60 60 59 59 59 58 58 57 56 54 53 51 50 48 47 47 47 47 48 48 48 49 49 50 50 51 52 53 53 54 54 52 52 50 49 48 48 48 48 49 49 49 49 50 53 58 63 67 68 68 67 66 67 68 70 70 70 70 68 65 62 58 52 48 44 42 40 40 40 40 42 44 48 53
54 56 56 57 57 58 58 58 57 57 58 58 59 60 60 60 60 60 58 58 56 55 53 52 50 48 48 48 48 48 49 50 50 50 51 52 53 54 55 56 56 57 57 56 56 54 53 52 52 52 52 54 55 57 58 60 62 66 72 74 76 74 73 72 72 72 73 72 71 68 64 60 54 48 42 40 38 38 39 40 42 44 48 53 58 62
54 55 55 55 55 56 56 56 56 58 60 61 62 63 63 63 63 62 61 60 58 56 55 53 51 50 49 49 50 50 50 51 51 52 52 53 55 56 58 60 60 61 61 60 60 60 58 58 58 59 60 60 63 66 68 69 70 72 75 78 79 79 78 76 75 74 72 70 66 61 56 50 44 40 36 36 36 38 40 43 46 50 56 61 66 70
52 53 53 53 54 54 56 57 58 60 62 63 64 65 65 65 64 64 62 60 58 56 55 53 52 51 50 51 51 51 52 51 51 52 53 54 56 58 61 64 66 67 67 67 66 66 66 66 66 66 67 69 71 73 74 74 74 76 76 79 79 78 77 76 74 71 67 62 57 51 45 40 37 34 34 37 39 41 43 48 53 58 63 68 72 74
51 52 52 52 53 54 57 58 60 62 63 64 64 64 63 63 62 62 60 58 57 55 53 52 52 51 51 52 52 52 52 52 52 52 53 56 58 62 66 68 70 71 72 72 72 72 71 71 72 72 73 74 76 76 78 78 78 78 79 78 78 76 74 72 68 63 58 52 48 43 39 36 34 35 37 41 44 46 48 54 60 65 69 72 74 76
51 52 52 52 53 54 57 60 62 63 63 62 62 60 60 60 59 58 57 56 54 53 52 51 50 50 51 52 52 53 52 52 51 52 54 58 62 67 70 72 72 73 74 74 74 74 74 74 74 75 76 77 78 80 81 82 81 79 78 75 73 70 68 64 59 54 48 44 42 40 38 36 36 38 42 47 50 53 56 61 66 70 73 74 76 78
52 53 53 54 55 56 58 60 62 62 61 60 60 59 58 58 58 56 55 54 52 52 51 50 50 50 51 52 53 53 52 51 51 52 56 61 66 70 72 74 74 74 74 75 76 76 76 76 77 78 78 80 81 82 83 82 80 77 74 70 66 61 56 54 50 46 42 42 42 41 40 40 41 45 51 56 58 62 65 69 72 74 76 77 78 80
52 54 54 56 57 58 59 60 59 58 58 58 58 58 58 58 56 55 54 53 52 52 51 50 50 50 51 52 53 53 52 51 51 54 58 64 68 72 74 74 76 76 76 76 77 77 78 79 80 80 81 82 82 82 80 78 76 73 69 64 59 54 51 46 42 40 41 43 44 45 44 46 50 56 61 65 68 70 72 74 76 77 78 80 81 82
53 54 54 55 56 56 56 56 56 56 56 57 58 58 58 56 55 54 53 53 52 52 50 50 50 51 52 53 54 53 52 50 51 55 61 66 70 73 74 75 76 76 77 78 79 80 80 80 81 82 83 83 82 80 78 74 71 66 62 57 52 49 46 42 40 40 42 45 48 50 53 56 61 65 69 72 74 76 76 78 79 80 82 82 83 84
53 54 54 54 54 55 55 56 56 57 58 58 58 57 57 56 55 54 54 53 52 52 51 51 52 52 53 54 53 53 52 51 52 56 61 67 71 73 74 75 76 77 78 80 81 82 82 81 81 81 82 82 81 79 76 70 64 58 54 51 49 48 46 44 44 44 46 49 53 57 62 67 70 72 74 75 76 77 78 80 81 83 84 84 85 86
52 53 53 54 54 54 55 56 57 57 58 58 58 57 56 55 54 54 54 54 53 52 52 52 53 54 55 54 53 52 51 52 54 58 62 66 70 73 74 76 78 79 79 78 78 79 80 79 79 79 80 80 78 75 70 64 57 52 48 47 48 48 48 48 48 50 53 57 60 65 69 73 75 76 76 77 78 79 80 82 83 84 84 85 85 85
51 52 52 53 54 54 55 55 56 57 57 57 57 57 56 56 55 55 54 54 53 53 52 54 55 56 55 54 53 52 52 53 57 61 65 68 71 74 76 78 80 82 81 79 77 76 76 77 78 78 79 78 75 70 62 56 50 47 45 46 48 50 50 51 53 57 61 66 70 73 74 76 76 77 77 78 79 81 83 84 84 85 85 85 84 84
50 51 52 52 53 54 54 54 55 56 56 57 57 57 57 56 56 56 56 55 54 54 54 56 56 56 55 54 54 54 54 57 61 65 68 70 73 76 78 80 81 82 82 80 77 74 74 75 76 78 79 76 70 62 54 50 47 45 46 47 49 51 52 55 58 62 67 72 75 77 78 78 79 79 79 80 82 84 85 85 86 85 85 84 84 84
49 50 50 51 52 52 53 54 55 56 56 57 57 58 58 58 57 57 56 56 56 56 57 58 58 57 56 55 55 56 58 62 66 69 71 73 74 77 79 80 80 81 82 80 77 75 74 74 75 76 76 70 63 55 48 45 45 46 47 48 50 52 55 59 63 66 70 74 76 78 79 80 80 81 82 83 84 85 86 86 86 85 84 84 85 85
49 49 49 50 50 51 52 53 54 55 56 57 58 59 60 58 58 57 56 56 57 58 60 60 60 58 58 58 58 60 63 67 70 72 73 74 77 79 80 80 79 79 80 79 78 76 76 76 76 74 71 64 56 47 42 42 43 45 47 48 50 54 59 64 67 70 74 76 77 79 80 81 82 82 83 84 85 86 86 85 84 84 83 84 85 86
Wind_Speed
52 52 52 52 52 52 52 52 52 51 51 51 51 50 50 50 50 51 51 51 51 51 51 51 51 50 49 48 47 45 44 44 44 45 45 46 46 47 48 50 52 54 55 56 57 57 56 56 54 53 51 49 47 45 44 42 42 41 40 39 39 38 37 36 35 34 33 32 31 30 28 26 26 26 27 27 28 28 27 27 27 27 27 28 28 28
50 50 51 51 51 51 51 51 51 51 51 51 50 50 49 50 50 51 51 51 51 51 51 50 50 49 49 48 47 46 46 46 46 46 46 47 47 49 50 52 54 55 56 56 56 55 54 52 50 48 45 44 42 41 40 39 39 38 38 37 36 36 35 34 32 32 31 30 29 28 26 25 25 25 25 25 26 26 26 26 27 27 27 28 28 28
48 49 50 50 51 51 52 52 52 52 52 52 52 51 51 50 50 50 50 51 51 51 50 50 50 50 49 48 47 47 47 47 48 48 48 48 49 51 52 53 54 55 55 54 53 51 49 47 44 42 41 39 38 38 37 37 37 36 35 35 34 33 32 31 30 29 29 28 27 26 26 25 25 25 25 25 26 26 26 26 27 27 27 28 28 28
47 48 49 50 51 52 53 54 54 55 55 55 55 55 54 53 52 51 51 50 50 51 51 50 50 49 49 49 48 48 48 49 49 49 49 50 51 52 53 53 53 53 52 51 49 47 44 42 40 38 37 36 36 36 35 35 35 34 33 32 32 31 30 29 28 28 27 27 26 26 25 25 25 25 25 25 25 26 26 26 27 27 28 28 28 28
48 49 50 50 51 52 53 54 55 56 57 57 58 57 57 56 55 53 53 52 51 51 51 50 50 49 49 49 49 49 50 50 51 51 51 51 52 52 52 52 51 50 49 47 45 43 40 38 36 35 34 34 34 34 34 33 33 32 31 30 29 29 28 27 27 26 26 26 26 26 25 25 25 25 25 25 25 25 26 26 27 28 28 29 29 29
49 50 51 51 52 53 53 54 55 56 57 58 58 58 58 58 57 56 55 54 53 52 52 51 51 50 50 50 50 51 52 52 53 52 52 52 52 53 52 51 50 48 46 44 41 39 36 34 33 32 32 32 32 32 32 31 31 30 29 28 28 27 27 26 26 26 26 26 26 26 25 25 24 24 24 25 25 26 26 27 28 29 29 29 29 29
51 52 52 52 53 54 54 54 55 56 56 57 58 58 58 58 58 57 56 56 55 54 54 53 53 52 52 52 52 53 54 54 54 54 54 54 54 53 52 51 49 46 43 41 38 35 33 32 31 30 30 30 30 30 30 29 29 28 28 27 26 26 26 26 26 26 26 26 26 25 25 24 24 24 24 25 26 27 28 28 29 30 30 30 29 29
53 54 54 53 54 54 55 54 54 55 55 56 56 57 57 58 57 56 56 55 55 54 54 54 54 54 53 53 53 54 54 55 55 55 54 54 54 52 50 48 45 43 40 37 35 33 31 29 29 28 28 28 28 28 28 28 27 27 26 26 25 25 26 26 26 26 26 26 25 25 24 24 24 24 25 26 27 28 29 29 30 30 30 30 29 28
54 54 55 55 54 54 54 55 55 54 54 54 55 55 55 56 56 56 55 54 54 54 54 54 54 54 54 53 53 54 54 55 55 54 54 52 51 49 46 43 40 38 36 34 32 30 29 28 27 27 27 27 27 27 27 27 26 26 25 25 25 25 26 26 26 26 25 25 24 24 24 24 24 25 26 27 28 29 30 30 31 31 30 29 28 26
55 55 55 56 55 54 54 54 55 54 54 53 53 53 53 53 54 54 54 54 53 53 53 53 54 54 54 54 54 54 54 54 54 53 51 49 46 43 40 37 35 33 31 30 29 28 27 26 26 26 25 25 26 26 26 26 26 25 25 25 25 25 25 25 25 25 24 24 23 23 23 24 25 26 27 28 29 30 30 31 31 30 29 27 26 23
56 56 55 55 55 55 54 53 54 54 53 52 52 52 51 50 50 51 52 52 52 52 52 53 53 53 53 54 54 54 53 53 52 50 47 44 41 37 35 32 31 30 29 28 27 26 25 24 24 24 24 25 25 25 26 26 26 25 25 25 25 25 25 24 24 24 23 23 23 23 24 25 26 27 28 29 30 31 31 31 30 29 27 25 22 20
56 56 56 55 54 54 53 53 52 52 51 51 50 51 50 49 48 47 47 48 50 51 52 53 53 52 52 52 53 53 52 50 48 45 43 39 36 32 30 29 28 28 27 26 26 25 24 23 23 22 23 23 24 25 25 26 26 26 25 25 24 24 24 23 23 23 23 23 23 24 24 25 27 28 29 30 30 31 31 31 29 27 24 21 18 16
55 55 54 53 53 52 51 51 50 50 50 49 49 49 49 49 47 46 47 48 49 51 52 52 53 52 51 51 51 50 48 45 43 41 38 35 32 29 27 27 27 26 26 25 25 24 23 23 22 22 22 23 23 24 25 25 25 25 24 24 23 23 22 22 22 23 23 23 24 24 25 26 27 28 29 30 31 31 31 30 27 24 20 17 15 14
53 52 52 51 50 49 49 48 48 48 48 48 47 47 48 48 47 47 48 49 50 51 50 51 51 51 50 49 48 46 43 41 39 38 35 32 30 27 26 26 26 25 25 24 24 23 23 22 23 23 23 23 24 24 24 24 24 23 23 22 21 21 21 22 22 22 23 23 24 25 25 26 27 28 29 30 31 31 30 28 24 20 17 15 14 15
50 49 49 48 48 47 47 46 46 47 47 47 47 47 47 47 47 47 48 48 49 49 49 49 49 49 47 45 44 43 41 38 37 35 34 31 28 26 24 24 25 24 24 24 24 23 23 23 23 23 24 24 24 24 24 23 23 22 21 21 21 21 21 22 22 23 23 24 24 25 25 26 27 28 30 30 31 30 29 25 20 17 15 15 16 17
48 47 46 46 46 46 45 45 45 46 46 46 46 47 47 47 47 47 47 47 47 47 47 47 46 45 43 41 39 38 37 35 35 34 33 30 26 23 22 23 24 25 24 24 24 24 24 23 23 23 24 25 25 25 25 24 23 22 22 21 22 22 22 23 23 23 23 24 24 24 25 26 27 28 30 30 30 29 26 21 17 15 15 17 18 18
46 45 45 45 45 45 45 45 45 45 46 47 47 47 47 47 47 47 47 46 46 46 45 44 42 40 39 38 37 36 35 34 34 33 31 27 23 20 19 21 23 25 25 25 25 25 24 23 23 23 24 24 25 25 25 25 24 24 24 24 24 24 24 25 25 24 24 24 24 24 25 26 27 28 29 30 29 27 23 18 15 15 16 17 19 20
44 43 43 44 44 45 45 45 45 46 47 47 48 48 48 47 47 46 46 46 45 44 43 41 39 38 39 40 39 37 35 34 34 34 31 27 22 19 19 20 22 24 25 25 25 24 24 24 24 24 25 25 25 25 26 26 26 26 26 26 26 27 27 26 26 25 24 24 23 24 25 26 27 28 29 29 27 24 20 17 15 15 16 17 19 21
42 42 42 43 43 44 45 45 45 46 47 47 47 47 47 47 46 45 44 44 43 42 41 40 39 39 38 38 38 37 34 33 33 33 31 28 24 21 21 22 23 24 25 24 24 24 25 26 27 27 27 27 27 26 27 27 27 27 27 27 27 28 28 27 26 25 24 23 23 24 25 26 27 28 28 27 25 22 18 16 15 15 16 17 19 20
42 42 42 42 42 43 44 44 45 45 45 46 46 45 45 45 44 43 42 42 40 39 38 37 37 36 36 36 36 35 33 33 33 33 32 29 27 25 25 26 27 28 28 28 28 29 30 31 31 32 31 30 29 28 28 28 27 27 27 27 27 27 27 26 25 24 23 23 23 24 25 26 27 28 27 26 23 20 17 16 15 15 16 18 19 20
41 42 42 42 42 42 43 44 44 43 43 43 43 43 43 42 42 41 40 39 37 36 35 35 34 34 33 33 33 33 32 32 33 34 32 30 28 27 27 30 32 33 33 33 33 33 34 34 34 33 32 31 30 29 28 27 26 26 25 25 25 25 25 24 23 23 22 23 23 24 25 26 27 27 26 24 21 18 16 15 15 16 17 18 19 20
40 41 42 42 41 41 42 42 41 41 40 40 40 40 40 39 38 37 36 35 34 33 32 31 31 31 30 30 29 28 27 27 28 28 29 28 27 27 28 30 33 34 35 35 35 35 35 34 34 32 30 29 28 27 26 25 24 24 24 24 23 23 23 23 22 22 22 22 23 24 25 26 26 26 25 22 20 17 16 15 15 16 17 18 19 20
40 41 41 41 40 40 39 39 38 38 37 37 36 36 36 35 34 33 33 32 31 30 29 29 28 27 26 25 24 23 22 22 22 23 24 24 24 24 25 28 31 32 33 33 32 32 32 31 29 28 27 26 25 24 23 22 23 23 23 23 22 22 22 21 21 21 22 22 23 24 25 25 25 25 23 21 18 17 16 15 16 16 17 19 20 21
41 40 40 39 38 37 37 36 35 34 34 33 32 32 32 31 30 29 29 28 28 27 27 26 25 24 23 22 21 20 20 19 19 19 19 19 19 20 22 25 27 28 27 26 25 25 25 26 25 24 23 23 22 21 21 21 22 22 22 22 21 21 21 21 21 21 22 22 23 23 24 24 24 23 21 19 17 16 15 15 16 17 18 19 20 22
40 39 38 37 36 35 34 33 32 31 30 29 29 28 28 27 26 25 25 25 24 24 24 23 22 21 21 19 19 19 18 17 16 15 16 16 17 19 22 24 23 22 20 20 21 22 23 23 22 21 21 20 20 20 21 21 22 21 21 21 21 21 20 20 21 21 21 22 23 23 23 23 23 21 19 17 16 15 15 15 16 17 19 20 21 22
38 37 36 35 34 32 31 30 29 28 27 26 25 25 24 23 22 22 21 21 21 21 21 21 20 19 19 18 16 15 14 14 13 14 15 17 19 21 22 21 19 18 17 18 19 20 21 21 20 20 19 19 20 20 21 21 21 21 21 20 20 20 20 20 21 21 21 22 22 23 23 22 21 19 18 16 15 15 15 16 17 18 19 20 21 22
36 35 34 32 31 29 28 27 25 24 23 23 22 21 21 20 20 19 19 19 19 19 19 19 19 18 18 16 14 13 12 12 13 15 16 18 20 20 20 19 18 18 18 18 19 19 19 19 19 19 19 19 20 21 21 21 21 20 20 20 20 20 20 21 21 21 21 22 22 22 22 21 19 17 16 15 14 14 15 16 17 18 19 20 21 21
34 33 31 30 28 27 25 24 22 21 20 20 19 19 19 18 18 17 17 18 17 18 18 18 18 18 17 16 15 14 13 14 15 16 17 18 18 19 19 19 18 19 19 19 19 19 19 19 19 19 19 20 20 21 21 20 20 20 20 20 21 21 21 21 21 21 21 22 22 21 20 19 17 15 14 14 14 14 15 17 18 19 20 21 21 21
32 31 29 27 26 24 23 22 21 20 19 18 17 17 17 17 16 16 16 16 16 17 17 17 17 17 17 16 16 16 15 16 16 17 17 17 17 17 18 18 19 19 19 19 18 18 18 18 18 18 19 19 19 20 20 20 20 20 20 20 20 21 21 21 21 21 21 21 21 20 18 16 15 14 13 14 14 15 17 18 19 20 21 21 21 21
30 28 27 25 24 23 22 20 19 18 17 16 16 15 15 15 15 15 15 16 16 16 17 17 17 17 17 17 17 17 17 17 18 18 18 18 18 18 18 18 19 19 19 19 18 17 16 16 16 16 17 17 18 18 18 19 19 19 20 20 20 20 20 20 20 20 20 20 19 17 16 14 13 13 13 14 15 17 18 20 21 22 22 22 21 20
28 26 24 23 22 21 20 19 18 17 16 15 14 14 14 14 14 14 15 15 16 16 16 17 17 18 18 18 19 19 19 20 20 20 19 19 19 19 19 19 19 19 19 19 19 18 16 15 15 15 15 16 16 17 17 18 18 18 19 19 19 19 19 20 20 19 18 17 16 14 13 13 12 13 14 15 16 18 20 21 22 23 23 22 21 20
26 24 23 22 21 21 19 18 17 15 14 13 13 13 13 13 14 14 14 15 15 15 16 16 17 18 19 20 21 21 22 22 22 22 21 21 21 20 20 20 20 19 19 19 19 18 18 16 15 15 15 15 15 16 17 17 17 18 18 18 18 19 19 19 18 17 16 14 13 12 12 12 12 13 15 16 18 20 21 22 23 23 23 22 21 20
25 23 22 21 21 20 18 17 15 14 13 12 12 12 12 13 13 14 14 15 15 15 16 16 17 18 19 20 21 22 23 23 23 23 23 22 22 21 21 21 20 20 19 19 18 18 18 18 17 16 15 15 16 16 17 17 17 18 18 18 18 18 18 17 16 15 13 12 11 10 11 11 13 14 16 18 19 20 21 22 22 22 22 21 20 19
23 22 21 20 20 19 17 16 14 13 12 11 11 11 12 13 13 14 15 15 16 16 17 18 19 20 21 22 23 23 24 24 24 24 24 23 22 22 21 21 20 20 19 19 18 18 18 18 18 17 17 17 17 17 17 18 18 18 19 19 19 18 17 16 14 13 11 10 10 10 11 12 13 15 17 18 19 20 20 20 20 20 20 20 19 18
22 21 20 20 19 18 16 14 12 11 11 10 11 11 12 13 14 15 15 16 17 18 19 20 21 22 23 24 25 25 25 25 25 25 24 23 22 21 21 20 20 20 20 19 19 18 18 18 18 18 18 18 18 18 18 18 18 18 18 18 18 17 16 15 13 12 11 10 11 11 12 14 15 16 17 18 19 19 19 19 18 18 18 18 17 16
21 20 19 19 18 16 14 12 11 10 10 10 10 11 12 13 14 15 16 17 18 19 20 21 22 23 25 26 26 27 27 26 25 24 23 22 21 20 20 20 20 19 19 19 19 18 18 17 18 18 18 18 18 18 17 17 17 17 16 16 16 15 15 14 13 12 12 12 13 14 15 16 16 17 18 18 18 17 17 17 16 16 16 16 15 14
20 19 18 17 16 15 13 11 10 10 10 10 11 11 13 14 15 16 17 18 19 20 21 22 23 24 25 26 27 27 27 26 25 24 22 21 20 20 20 19 19 19 19 18 18 18 17 17 17 17 17 17 17 17 17 16 15 14 14 14 14 14 14 14 14 14 14 14 15 16 17 17 17 17 17 16 16 15 15 14 14 14 14 13 13 12
18 17 16 15 14 13 11 10 10 10 10 11 12 13 14 15 16 17 18 19 20 21 22 23 24 25 26 27 27 27 27 26 24 23 21 20 20 19 19 19 19 19 18 18 17 17 16 16 16 15 15 15 15 15 15 15 14 13 12 12 13 13 14 14 15 15 15 16 16 17 17 17 17 17 16 15 14 13 12 12 12 12 11 11 11 10
17 15 14 13 12 11 10 10 10 11 11 12 13 14 14 15 16 17 18 19 20 21 23 24 25 26 27 27 28 28 27 25 23 21 20 19 19 19 19 19 19 18 17 16 16 15 15 15 14 14 14 13 13 13 13 13 13 12 12 12 12 13 14 15 15 16 16 16 16 16 16 17 16 16 15 14 12 11 10 10 9 9 9 9 9 9
16 15 13 12 12 11 11 11 11 11 12 13 13 14 15 16 16 17 18 19 20 22 23 24 25 26 27 28 28 27 26 24 22 20 19 18 18 18 18 18 17 17 16 15 15 14 14 13 13 13 13 13 13 13 13 13 13 13 13 13 13 13 14 15 15 16 16 16 16 16 16 16 15 15 14 13 12 10 9 9 8 8 8 7 7 7
16 14 13 13 13 12 12 11 11 12 12 13 14 15 15 16 17 18 19 20 21 22 23 24 25 25 26 26 26 25 24 22 20 18 18 18 18 18 17 17 16 15 15 14 14 13 13 13 13 13 13 13 13 13 13 13 14 14 14 14 14 14 15 15 15 15 15 15 15 15 15 15 15 14 13 12 11 10 9 9 8 8 8 8 8 7
16 15 14 13 13 13 13 12 12 12 13 14 15 16 17 18 19 19 20 21 22 23 24 24 25 25 25 25 24 23 21 20 18 17 17 16 16 16 16 15 15 14 14 14 13 13 13 13 13 13 13 13 13 13 13 14 14 14 14 14 14 14 14 14 15 15 15 15 15 15 15 15 14 14 13 11 10 10 9 9 9 9 8 9 9 8
16 15 14 14 13 13 13 13 13 13 14 15 16 17 18 19 20 21 22 22 23 24 25 25 25 25 25 24 22 20 19 18 17 16 15 15 15 14 14 14 13 13 13 13 13 13 12 12 12 13 13 14 14 14 14 14 14 14 15 15 15 14 14 14 14 14 14 14 14 14 14 14 14 13 12 11 10 10 10 10 10 10 10 10 9 9
16 15 15 14 14 14 13 14 14 15 16 16 17 18 19 20 21 21 22 23 24 25 26 26 25 25 24 22 20 18 17 16 15 15 14 14 13 12 12 12 12 12 12 13 13 12 12 11 12 12 13 14 14 14 14 14 14 15 15 15 16 16 16 15 15 14 14 13 13 13 13 13 13 13 12 11 11 10 11 11 11 11 11 11 10 10
16 15 15 15 14 14 14 15 16 16 17 18 18 19 20 21 22 22 23 24 25 25 26 25 25 24 22 20 18 17 15 14 13 13 13 12 12 11 10 11 11 12 13 13 13 13 12 12 11 12 13 14 14 15 15 15 15 15 15 16 16 16 16 16 16 15 14 13 13 13 13 13 13 12 12 12 12 12 12 12 12 12 12 12 12 12
16 16 16 16 16 15 16 16 17 17 18 18 19 20 21 22 23 23 24 25 25 26 25 25 24 23 21 19 17 15 14 13 12 12 12 11 11 10 10 11 12 12 13 13 13 13 13 13 12 12 12 13 15 15 16 16 16 15 16 16 16 16 16 17 16 16 15 13 13 13 13 13 13 12 12 12 13 13 13 13 13 13 13 13 13 14
16 16 16 16 17 16 17 17 17 18 18 19 20 21 22 23 24 24 25 25 25 25 25 24 23 21 20 18 16 14 13 12 12 12 11 11 10 10 11 11 12 13 13 13 13 13 13 13 13 13 13 14 15 15 16 16 16 16 16 16 16 16 17 17 17 16 15 14 14 13 13 13 12 12 13 13 14 14 14 14 14 14 14 15 15 15
17 17 17 17 17 17 17 18 18 19 19 20 21 22 23 24 24 25 25 25 25 24 24 23 21 19 18 16 15 14 13 12 12 13 12 11 11 11 11 12 12 13 13 13 12 13 13 14 14 14 14 15 15 16 16 16 16 16 16 16 16 16 17 17 17 16 15 15 14 14 14 13 13 13 13 14 15 15 15 15 15 15 16 16 17 17
18 18 18 18 18 18 18 19 19 19 20 21 21 22 23 24 24 24 24 24 24 23 23 21 20 18 16 15 14 13 13 13 13 13 13 12 11 11 11 12 13 13 14 14 14 14 14 15 15 15 15 15 15 15 16 16 16 16 16 16 16 16 16 17 16 16 15 15 14 14 14 14 13 13 13 14 15 15 16 16 16 16 17 17 18 18
19 19 19 19 19 19 19 19 19 20 20 21 21 22 22 23 23 23 23 22 22 22 21 20 18 17 15 14 13 13 12 12 13 13 13 13 13 13 13 13 13 14 14 15 15 16 16 17 16 16 15 15 15 15 16 16 16 16 16 16 16 16 16 16 16 15 15 14 14 14 14 14 13 13 13 14 15 16 16 17 17 17 17 18 18 19
20 20 20 19 19 19 19 19 19 20 20 20 21 21 22 22 22 21 21 20 20 19 19 18 16 15 14 13 13 12 12 12 12 12 13 13 13 13 14 14 14 15 15 16 16 17 18 18 18 17 16 15 15 16 16 16 15 15 15 15 15 15 16 16 15 15 14 14 14 14 14 14 14 14 14 14 15 16 17 17 18 18 18 18 18 18
Wind_Direction
295 295 295 295 294 294 294 294 294 293 294 294 295 295 295 295 295 295 295 294 294 294 295 295 296 296 296 296 296 296 296 295 294 295 295 296 297 297 297 296 296 296 296 296 297 297 298 298 299 299 299 299 298 297 296 295 294 293 292 292 291 291 290 290 290 290 291 291 290 290 290 289 287 285 284 284 285 287 289 291 292 293 293 293 293 293
297 297 296 296 296 295 295 295 294 294 294 294 295 295 295 295 295 295 295 295 295 296 296 296 296 296 296 296 296 296 295 295 295 296 296 297 297 297 296 296 296 296 297 297 298 298 299 300 300 300 300 299 297 296 295 294 293 293 292 291 291 290 290 290 291 291 291 291 291 292 292 291 290 289 288 289 290 292 293 294 295 296 296 295 295 295
298 298 297 297 297 296 296 296 296 295 295 295 294 294 294 294 295 295 295 296 296 296 295 295 295 295 295 295 295 295 295 295 295 296 296 296 296 296 296 296 297 297 298 299 300 301 302 302 302 301 300 299 297 296 295 294 293 292 292 291 291 291 291 291 291 292 292 292 293 293 294 294 294 294 293 294 295 295 296 297 297 298 298 298 297 296
299 298 298 298 298 297 297 297 297 297 296 296 296 295 295 295 295 295 295 295 295 295 295 295 295 295 295 295 295 295 295 295 295 295 296 296 296 296 297 297 298 300 301 302 303 304 304 304 303 302 300 298 297 295 294 293 293 292 292 291 291 291 291 292 292 292 293 294 295 295 295 295 295 296 296 296 297 297 298 298 299 299 299 299 299 298
299 299 298 298 298 298 298 298 298 298 298 297 297 297 297 297 297 297 296 296 296 295 295 295 295 295 295 295 295 295 295 295 295 296 297 298 298 299 299 300 302 303 304 305 306 307 306 305 304 302 300 298 296 295 294 293 292 292 292 291 291 291 291 292 293 294 295 295 296 296 296 296 296 296 296 296 297 298 299 300 301 301 301 301 301 300
299 299 298 298 298 298 298 298 298 298 298 298 298 298 298 298 298 298 298 298 298 298 297 297 297 297 297 297 298 298 298 298 299 299 301 302 303 304 304 305 307 307 308 309 309 308 307 305 303 300 298 296 295 294 294 293 293 292 292 291 291 291 291 293 294 295 295 295 295 295 295 295 295 296 296 297 298 299 301 302 303 303 303 303 302 301
300 299 299 298 298 298 298 298 298 298 299 299 299 299 300 300 300 300 301 301 301 301 301 301 301 301 301 302 302 302 303 303 303 304 306 307 308 309 309 310 311 311 311 311 310 309 307 304 301 299 297 296 295 294 294 293 293 292 292 291 291 291 293 294 294 295 295 295 294 294 294 295 295 296 297 299 301 302 303 304 305 305 305 304 303 301
300 300 299 299 299 299 299 299 299 299 299 300 300 300 301 301 302 302 302 302 303 303 303 303 304 304 305 305 305 305 305 305 306 307 309 310 311 311 312 312 312 312 312 311 309 308 305 303 300 298 296 295 295 295 294 294 293 292 292 291 292 292 293 294 295 295 294 294 294 294 294 295 297 299 300 302 303 304 305 306 306 306 306 305 303 300
301 301 300 300 300 300 300 300 300 300 300 301 301 302 302 303 303 304 304 304 304 305 305 305 305 306 306 306 306 305 305 306 307 308 310 311 311 312 312 312 312 311 310 308 307 305 303 301 299 298 297 297 297 296 296 295 294 293 292 292 292 293 294 294 294 294 294 294 294 295 296 298 300 301 303 304 305 306 306 307 307 307 307 305 303 300
301 301 301 301 301 301 301 301 301 301 302 302 303 303 304 305 305 306 306 306 306 306 306 306 306 306 306 305 305 305 305 306 307 309 310 311 312 312 312 311 309 308 306 305 303 302 301 300 300 299 299 299 299 298 298 296 295 294 292 292 293 293 294 294 295 295 295 295 296 297 298 300 301 303 304 304 306 306 307 308 308 308 307 305 303 300
302 302 302 302 302 303 303 303 303 303 303 304 305 305 306 306 306 306 306 306 306 305 305 305 304 304 304 304 304 304 305 306 308 309 310 311 312 312 310 308 306 305 303 301 300 299 299 299 300 301 301 302 301 300 299 297 295 294 293 293 293 294 295 295 296 296 297 298 298 299 300 301 302 303 304 305 306 308 309 310 310 309 307 305 302 300
303 303 304 304 304 305 305 305 305 305 305 306 306 306 305 305 305 304 304 303 302 302 302 302 302 302 302 303 303 304 305 307 308 310 311 312 312 311 309 306 303 302 301 299 298 298 298 298 299 301 302 302 302 301 300 298 295 294 293 293 294 295 296 297 298 299 299 300 300 301 301 302 303 304 305 306 308 309 310 311 310 309 307 304 301 300
305 305 306 306 306 306 306 306 306 306 306 306 305 305 304 304 303 301 300 299 299 299 299 300 301 301 302 303 304 305 306 308 309 310 311 312 311 310 307 304 302 301 300 299 297 297 298 298 299 301 302 303 303 302 300 298 295 293 293 293 295 296 298 299 300 301 302 302 302 301 302 302 304 305 306 307 309 310 311 311 310 309 306 304 303 304
306 307 307 307 307 307 307 307 306 306 306 305 305 304 303 303 301 300 299 298 298 298 299 300 301 302 303 304 305 306 308 309 310 311 311 312 311 310 308 305 303 301 299 297 296 296 296 298 299 301 303 304 305 305 303 299 296 293 293 293 295 297 299 301 302 303 303 302 302 302 302 303 305 306 307 308 309 310 311 311 310 308 306 306 307 306
307 308 308 308 308 307 307 307 307 306 305 305 304 304 303 302 301 300 299 299 299 300 301 302 303 304 305 306 307 308 309 310 310 311 312 312 312 312 311 308 305 302 299 296 294 293 294 295 298 301 304 305 307 307 306 302 298 295 294 294 296 298 301 303 304 304 304 303 302 302 303 304 305 307 308 309 310 311 311 310 308 308 309 309 306 303
309 309 309 309 309 308 308 307 307 306 305 305 304 303 302 302 301 301 301 301 302 302 303 304 305 306 306 306 306 307 309 309 309 310 311 312 313 313 311 307 304 302 299 296 294 292 292 294 297 301 304 305 306 307 306 304 300 297 295 296 297 299 301 304 304 304 304 303 302 303 304 305 306 307 308 309 310 311 310 308 306 306 307 305 301 296
311 311 310 310 310 309 308 308 307 306 305 304 304 303 303 303 303 303 303 303 303 304 305 305 305 305 304 302 302 303 304 305 305 307 309 310 309 307 302 299 297 296 295 293 291 291 292 296 300 304 306 307 307 307 305 303 299 297 295 295 296 298 300 303 304 304 303 302 303 303 304 306 306 307 308 309 310 310 308 304 301 300 298 295 292 289
312 312 311 311 310 309 309 308 307 306 305 305 304 305 305 305 305 305 305 304 304 305 306 306 305 303 302 299 299 300 302 302 302 304 306 306 303 297 289 286 286 288 289 288 288 289 293 298 303 307 309 309 309 307 305 301 298 295 293 293 293 295 298 300 301 302 301 302 303 304 305 306 306 307 308 310 310 309 305 299 294 291 289 288 288 289
313 312 311 311 310 310 309 307 306 306 305 305 305 305 305 305 305 305 305 305 305 305 306 305 304 303 301 300 301 301 301 300 299 300 300 299 295 289 284 282 282 285 287 288 290 292 296 300 303 306 307 308 308 307 305 302 299 296 294 293 293 294 296 298 298 299 299 300 302 303 305 306 307 308 310 310 310 307 302 296 290 287 287 290 293 295
313 312 311 310 310 308 307 306 305 305 305 305 305 305 305 304 304 304 304 305 305 306 306 305 304 302 301 300 300 300 298 295 293 292 292 289 285 282 281 282 285 287 290 293 296 298 300 302 303 304 305 305 305 305 304 303 301 299 297 296 295 295 295 296 296 297 298 300 301 303 305 306 308 309 310 310 309 305 299 294 292 292 294 297 300 302
312 311 310 309 308 307 306 305 305 305 305 305 304 304 304 304 304 305 305 306 306 306 306 306 305 304 303 302 302 301 299 295 292 291 291 289 284 281 281 283 286 288 291 294 297 299 300 300 301 303 303 302 302 302 303 303 303 302 300 299 297 296 296 295 295 296 297 299 301 303 305 307 309 311 311 309 306 302 297 294 294 297 300 304 307 308
312 311 310 309 308 307 306 306 305 305 305 304 304 304 304 305 305 306 307 308 308 308 309 309 309 309 309 309 309 309 308 305 303 302 301 299 294 291 290 291 291 291 291 294 296 297 297 297 299 301 301 301 300 300 301 302 303 303 302 301 299 297 296 295 295 296 297 299 301 304 307 309 310 310 310 307 303 299 295 294 297 301 306 310 312 314
313 312 311 311 310 309 308 307 307 306 306 305 305 305 305 306 307 308 309 310 311 311 312 313 314 314 315 317 319 322 324 323 321 319 316 313 309 306 304 303 301 299 297 297 298 298 297 300 302 303 302 300 298 298 301 304 305 306 305 303 301 299 297 296 296 297 298 300 302 306 308 310 310 310 307 304 300 296 295 296 300 306 311 315 317 318
315 315 314 313 312 312 311 310 309 309 308 308 308 308 308 309 311 312 313 314 315 317 318 319 320 322 325 329 335 340 342 339 335 331 327 322 316 311 307 307 308 308 307 304 303 303 305 307 307 306 302 298 297 299 303 306 308 308 306 305 303 301 299 298 298 298 300 302 305 308 310 310 310 308 305 302 298 296 296 299 304 310 314 318 319 320
318 317 317 316 316 315 315 314 313 313 312 312 312 313 313 315 316 318 319 320 322 324 326 327 329 332 336 341 349 355 354 351 345 336 326 315 306 301 301 305 309 312 311 307 304 304 305 306 305 302 298 295 296 300 305 308 309 308 307 305 304 302 301 301 301 301 303 305 307 309 311 310 309 307 303 300 297 297 299 303 308 313 317 319 320 319
320 320 320 319 319 319 319 319 319 318 318 318 318 319 320 322 323 325 326 328 330 333 334 336 338 340 343 350 355 355 347 340 330 319 310 303 299 300 304 309 314 315 311 306 304 303 303 302 300 297 294 295 299 303 307 309 308 308 307 306 305 304 304 303 303 304 306 308 310 311 311 310 308 305 302 300 298 299 302 307 311 315 318 319 319 318
323 323 323 323 323 323 324 324 324 324 325 325 325 327 328 331 332 334 336 339 341 343 344 344 346 347 350 353 352 345 333 323 315 309 307 306 307 309 312 316 317 316 314 311 308 307 305 302 300 299 299 301 304 307 308 308 308 307 307 306 306 306 306 306 306 308 309 311 312 312 311 309 307 304 302 300 300 303 306 311 315 318 320 320 319 317
326 326 327 327 328 328 329 329 330 330 331 332 334 336 338 341 344 346 348 351 353 354 353 354 355 356 356 354 349 341 333 327 323 320 320 318 317 318 319 319 318 317 316 314 313 311 309 307 306 306 306 307 308 308 308 308 308 307 307 307 307 307 307 308 309 310 312 313 313 313 311 309 307 304 303 303 304 308 312 315 318 320 321 321 319 317
329 330 330 331 332 333 334 336 337 338 340 342 345 348 350 352 355 358 359 1 3 3 1 1 2 2 1 358 353 348 344 341 339 338 336 333 330 327 325 323 321 320 318 316 314 312 312 312 312 312 311 310 309 308 307 308 308 308 308 308 308 308 309 310 312 313 314 314 314 313 311 309 307 306 306 308 311 314 317 320 321 322 322 321 320 318
333 333 334 335 337 338 341 342 345 347 350 353 356 359 1 2 4 6 7 8 8 8 5 4 4 3 2 359 357 355 353 350 349 347 345 342 340 337 333 330 328 326 324 322 319 317 317 316 316 315 314 311 310 309 309 309 309 309 308 308 309 310 311 312 313 314 315 315 314 313 311 310 309 310 311 314 317 320 321 322 322 322 322 321 320 318
336 337 338 339 341 344 347 350 353 356 359 2 4 6 8 9 10 11 11 11 10 9 7 5 3 2 360 358 356 355 353 350 348 346 344 342 340 338 336 334 333 332 331 330 328 326 324 322 320 318 316 315 313 312 312 311 310 310 310 310 311 312 313 314 315 316 316 316 315 314 313 312 313 315 317 320 321 323 324 323 323 322 321 321 320 319
339 340 342 343 346 349 353 356 360 3 5 8 9 10 11 12 12 11 11 10 9 7 5 3 1 359 357 355 353 351 348 345 343 341 340 338 337 335 333 333 332 332 332 332 331 331 330 328 325 323 322 321 319 317 316 315 314 314 314 314 315 315 316 316 317 318 319 319 318 317 317 317 318 320 322 323 324 324 324 323 322 321 320 320 320 320
342 343 345 347 349 353 357 1 4 7 8 10 11 11 11 11 10 8 7 6 4 2 0 358 356 354 353 351 349 347 344 342 339 337 336 335 333 332 330 329 329 328 328 328 328 328 329 328 327 326 326 325 323 322 321 320 320 320 320 320 320 320 320 320 322 323 324 324 323 322 322 322 323 324 324 325 325 324 323 322 321 320 319 319 320 322
345 346 347 349 351 355 359 3 6 8 9 9 9 10 9 8 5 3 1 360 358 356 355 353 352 350 348 347 345 344 342 339 337 336 335 333 332 331 329 328 327 326 325 325 325 325 325 325 325 324 324 324 324 324 324 324 325 325 325 325 325 324 325 326 329 331 332 332 330 328 327 327 327 327 326 326 325 324 323 321 320 318 318 319 321 324
347 348 349 350 352 355 359 3 5 6 5 5 6 6 5 2 360 357 355 353 351 350 349 348 348 346 345 344 343 342 341 339 337 336 334 333 332 331 330 329 328 327 326 325 324 323 323 323 323 323 323 323 324 324 325 326 328 329 329 329 328 329 330 333 336 338 339 338 336 334 332 331 330 329 328 327 326 325 323 321 319 318 318 320 324 329
350 351 351 352 353 355 356 359 0 0 360 360 0 360 358 356 353 351 349 347 346 345 344 344 344 344 343 343 342 341 340 338 337 336 336 335 334 333 333 331 330 329 328 327 325 324 324 323 323 323 323 324 325 326 327 329 330 332 333 333 332 333 335 338 341 342 342 341 339 337 335 333 332 331 330 329 328 326 324 322 321 321 322 325 330 336
351 352 353 353 354 354 354 354 354 353 353 354 354 354 353 350 348 346 344 343 342 341 341 342 342 342 342 341 341 340 339 339 338 338 338 337 337 337 336 335 333 332 330 329 328 327 326 326 325 325 326 327 328 330 331 333 336 338 340 339 338 338 339 342 344 344 342 340 339 337 335 333 332 332 332 332 331 329 327 325 325 326 329 332 337 345
350 350 352 352 353 353 352 351 350 349 349 350 350 350 349 347 345 343 342 340 340 340 340 341 341 341 340 340 339 339 339 339 340 340 341 340 340 340 339 338 337 335 334 333 331 331 330 330 330 331 332 334 335 337 338 341 344 348 349 346 343 341 341 342 343 342 341 339 337 336 334 333 333 334 335 336 336 335 332 331 331 333 337 341 345 352
346 346 347 349 349 350 350 350 349 348 347 348 348 348 347 345 343 341 340 339 339 339 339 340 340 340 339 339 338 338 339 340 342 343 343 343 343 342 342 342 341 340 339 338 337 337 338 339 340 341 343 346 347 348 348 350 352 354 354 351 346 342 341 340 340 339 338 338 337 336 334 334 336 338 341 343 343 342 342 341 342 344 348 351 355 360
344 343 343 344 344 345 347 348 347 346 346 346 345 344 343 342 340 339 338 337 337 337 337 338 338 338 338 338 337 338 339 341 344 345 346 346 346 346 346 348 349 349 348 348 347 347 349 350 352 353 356 358 0 0 358 356 355 355 354 350 346 342 340 340 339 339 339 339 339 338 338 339 341 345 349 351 352 352 354 355 357 360 3 6 9 12
343 341 340 341 341 341 342 344 344 344 344 343 343 341 340 338 337 335 335 335 335 335 336 336 337 338 338 338 338 338 340 343 345 347 348 348 348 350 352 354 357 358 359 360 360 0 1 3 4 6 7 8 8 6 2 358 354 352 349 347 345 343 342 342 342 342 343 344 343 343 343 345 348 353 357 0 2 4 7 11 15 18 20 22 24 26
342 340 339 340 340 340 340 340 341 342 341 341 340 338 337 335 334 334 334 334 334 335 336 337 338 339 339 339 339 340 342 344 347 349 350 351 352 355 358 1 3 5 7 9 10 11 11 12 12 12 12 11 9 5 1 356 351 347 345 345 346 346 347 347 347 348 350 350 349 348 349 351 356 1 7 11 15 18 22 27 30 33 34 36 35 34
341 340 339 340 340 339 339 339 339 339 339 338 337 336 334 333 332 333 333 334 335 336 338 339 340 340 341 341 342 343 345 348 350 351 352 353 355 358 2 5 6 8 10 13 15 17 17 17 15 13 11 8 5 2 358 354 350 346 346 347 350 353 355 355 355 356 356 356 354 354 355 358 4 10 17 23 28 33 37 40 42 43 42 41 38 32
340 339 338 337 337 336 336 336 336 335 335 335 334 333 331 331 331 332 334 335 336 337 339 340 342 343 344 345 345 347 349 352 353 353 354 355 356 359 2 4 7 10 13 15 17 18 19 17 14 10 7 3 360 358 356 355 353 352 353 355 357 358 359 1 2 3 3 3 1 1 3 8 14 20 27 34 40 46 48 49 48 45 42 37 30 22
338 336 334 333 332 332 332 332 332 332 332 332 331 330 330 330 331 333 335 336 338 339 341 343 344 345 347 349 350 352 354 356 356 356 355 354 355 356 359 3 8 12 16 17 17 16 15 13 11 8 4 0 357 356 357 357 357 358 360 1 2 3 3 4 5 7 9 10 11 12 14 18 23 29 36 43 48 51 51 49 46 40 34 27 19 11
333 331 329 328 328 328 328 329 329 330 330 330 329 329 329 330 332 334 336 338 339 341 343 345 347 349 351 353 356 358 359 0 360 359 357 356 355 357 0 5 9 13 15 17 16 14 11 9 7 5 2 0 359 358 359 360 1 3 4 6 6 6 6 6 8 11 13 17 20 23 25 28 31 36 41 46 49 48 45 41 36 30 23 17 10 5
329 327 325 325 325 325 326 327 327 327 327 328 328 329 330 331 333 336 338 340 342 343 345 348 350 352 355 357 1 4 6 6 5 3 2 1 3 6 9 11 12 12 12 12 11 9 8 6 4 3 2 2 2 2 2 3 4 6 7 8 8 8 8 9 12 15 18 23 28 32 34 37 39 41 44 46 44 41 36 31 25 20 15 10 6 2
331 328 326 325 324 324 324 324 324 324 324 325 326 328 331 333 335 337 340 342 344 345 347 351 354 357 360 3 7 10 13 14 14 14 13 13 15 18 19 18 15 12 8 6 5 5 5 4 3 3 3 4 4 5 5 6 6 7 8 10 9 9 9 11 15 19 23 29 32 35 37 39 41 42 43 42 38 33 28 23 18 14 10 7 4 2
337 333 331 328 326 324 323 323 323 322 323 324 326 328 331 334 337 339 342 344 346 347 350 354 358 3 6 10 15 19 22 25 26 27 28 29 30 29 25 21 17 13 8 5 3 3 4 5 6 6 6 6 7 8 9 9 8 8 9 10 10 9 10 12 16 22 28 33 36 37 38 39 41 42 40 37 32 27 23 19 16 13 10 7 5 4
342 339 337 334 331 328 326 325 324 324 324 326 327 330 333 335 338 342 344 346 348 349 353 357 3 8 13 18 23 28 32 35 37 39 40 40 37 32 26 21 18 15 12 10 7 5 4 5 7 10 11 11 11 12 12 11 11 10 9 9 10 11 11 14 18 24 31 36 39 39 39 39 40 40 38 33 29 24 20 18 16 14 12 10 8 6
347 345 343 340 338 335 333 331 330 329 329 330 332 333 335 337 341 344 348 349 351 353 357 2 8 14 19 25 30 36 41 45 46 46 46 43 37 30 24 20 17 16 14 12 9 7 4 3 5 8 13 15 16 15 13 13 13 12 11 11 11 12 14 17 21 27 33 38 40 40 39 38 37 36 34 31 26 22 20 18 17 17 16 14 12 10